Regional Weather Roundup
Issued by NWS

Home | Current Version | Previous Version | Text Only | Print | Product List | Glossary Off
Versions: 1 2 3 4 5 6 7 8 9 10 11 12 13 14 15 16 17 18 19 20 21 22 23 24 25 26 27 28 29 30 31 32 33 34 35 36 37 38 39 40 41 42 43 44 45 46 47 48 49 50

000
ASUS43 KMKX 221920
RWRWI

WISCONSIN REGIONAL WEATHER ROUNDUP
NATIONAL WEATHER SERVICE MILWAUKEE/SULLIVAN WI
100 PM CST THU FEB 22 2018

NOTE: "FAIR" INDICATES FEW OR NO CLOUDS BELOW 12,000 FEET WITH NO
SIGNIFICANT WEATHER AND/OR OBSTRUCTIONS TO VISIBILITY.

WIZ001-002-006>008-014>016-023>028-222000-
NORTHWEST WISCONSIN

CITY           SKY/WX    TMP DP  RH WIND       PRES   REMARKS
SUPERIOR ARPT  CLOUDY    19   7  60 NE5       30.54F WCI  12
ASHLAND        CLOUDY    22   6  50 N3        30.55F
HAYWARD        PTSUNNY   28   6  39 CALM      30.50F
SIREN          CLOUDY    27   4  37 S6        30.50F WCI  20
CUMBERLAND     CLOUDY    23   7  50 SE6       30.49F WCI  16
RICE LAKE      CLOUDY    25   9  49 SE6       30.52F WCI  18
CHETEK         CLOUDY    28   8  44 SE6       30.51F WCI  21
LADYSMITH      CLOUDY    30  10  42 SE5       30.53F WCI  25
EAU CLAIRE     CLOUDY    27  12  53 E9        30.50F WCI  18
MENOMONIE      PTSUNNY   29  11  46 E8        30.51F WCI  21
NEW RICHMOND   CLOUDY    26  10  52 E5        30.49F WCI  20
OSCEOLA        CLOUDY    26   9  49 SE5       30.53F WCI  20
$$

WIZ003>005-009-010-017-018-222000-
NORTH CENTRAL WISCONSIN

CITY           SKY/WX    TMP DP  RH WIND       PRES   REMARKS
MANITOWISH WTR CLOUDY    27   8  45 SE3       30.50F
ARBOR VITAE    CLOUDY    32  10  40 SE3       30.49F
WOODRUFF       CLOUDY    32  10  40 SE3       30.49F
RHINELANDER    PTSUNNY   28  10  46 SE7       30.51F WCI  21
EAGLE RIVER    PTSUNNY   29   5  35 SE3       30.49F
LAND O LAKES   PTSUNNY   30   6  37 SE3       30.51F
PHILLIPS       CLOUDY    28  10  46 SE5       30.49F WCI  22
TOMAHAWK       CLOUDY    31  10  40 E3        30.51F
MEDFORD        PTSUNNY   25  12  56 E7        30.50F WCI  18
MERRILL        PTSUNNY   28  12  52 E9        30.53F WCI  19
$$

WIZ029-030-035-036-043>047-222000-
CENTRAL WISCONSIN

CITY           SKY/WX    TMP DP  RH WIND       PRES   REMARKS
WAUSAU         CLOUDY    27  10  49 SE10      30.51F WCI  17
MOSINEE        CLOUDY    27  12  54 E8        30.53F WCI  18
MARSHFIELD     CLOUDY    26  14  60 E9        30.50F WCI  17
STEVENS POINT  CLOUDY    26  14  59 E8        30.55F WCI  17
WAUPACA        PTSUNNY   32  20  60 E8        30.56F WCI  25
WAUTOMA        FAIR      29  20  69 NE12      30.54F WCI  19
WISC RAPIDS    CLOUDY    29  16  58 E8        30.54F WCI  21
CAMP DOUGLAS   CLOUDY    30  18  59 SE9       30.51F WCI  22
$$

WIZ011>013-019>022-031-037>040-048>050-222000-
NORTHEAST WISCONSIN

CITY           SKY/WX    TMP DP  RH WIND       PRES   REMARKS
ANTIGO         PTSUNNY   26  11  52 E6        30.53F WCI  20
SHAWANO        FAIR      30  19  62 NE7       30.58F WCI  24
OCONTO         PTSUNNY   29  20  69 NE6       30.60F WCI  23
STURGEON BAY   CLOUDY    33  18  53 E8        30.61F WCI  26
GREEN BAY      PTSUNNY   30  20  66 NE8       30.59F WCI  22
MANITOWOC      CLOUDY    32  21  64 VRB7      30.59F WCI  26
APPLETON       CLOUDY    28  18  64 E8        30.54F WCI  20
CLINTONVILLE   PTSUNNY   31  19  60 E9        30.56F WCI  23
OSHKOSH        PTSUNNY   29  21  72 NE10      30.54F WCI  20
$$

WIZ032>034-041-042-053>061-222000-
SOUTHWEST WISCONSIN

CITY           SKY/WX    TMP DP  RH WIND       PRES   REMARKS
LA CROSSE      CLOUDY    29  18  63 E9        30.50F WCI  20
SPARTA         CLOUDY    29  18  62 E9        30.52F WCI  21
VIROQUA        CLOUDY    30  19  64 E12       30.46F WCI  20
BOSCOBEL       CLOUDY    32  19  58 NE7       30.49F WCI  26
PRAIRIE DU CHI CLOUDY    33  17  52 E7        30.46F WCI  26
PLATTEVILLE    CLOUDY    33  26  77 E15       30.45F WCI  22
$$

WIZ056-057-062-063-064-067-068-222000-
SOUTH CENTRAL WISCONSIN

CITY           SKY/WX    TMP DP  RH WIND       PRES   REMARKS
REEDSBURG      CLOUDY    29  19  64 E9        30.50F WCI  21
BARABOO/DELLS  CLOUDY    30  19  63 E9        30.49F WCI  21
LONE ROCK      CLOUDY    32  22  66 E13       30.49F WCI  22
MINERAL POINT  PTSUNNY   34  27  75 E15G21    30.45F WCI  24
MADISON        CLOUDY    32  23  69 E12       30.52F WCI  23
MIDDLETON      CLOUDY    32  24  73 E10       30.51F WCI  24
WATERTOWN      CLOUDY    33  25  72 E12       30.51F WCI  24
MONROE         CLOUDY    32  27  80 NE10      30.47S WCI  24
JANESVILLE     CLOUDY    36  28  75 E13       30.50F WCI  27
$$

WIZ051-052-058>065-066-070>072-222000-
SOUTHEAST WISCONSIN

CITY           SKY/WX    TMP DP  RH WIND       PRES   REMARKS
MILWAUKEE      CLOUDY    34  28  79 E13       30.54F WCI  25
WAUKESHA       CLOUDY    32  25  74 E12       30.53F WCI  23
MILWAUKEE/TIMM CLOUDY    34  25  69 NE8       30.56F WCI  27
RACINE         CLOUDY    34  28  79 NE14      30.55F WCI  25
BURLINGTON     CLOUDY    33  27  78 E12G18    30.51F WCI  25
KENOSHA        CLOUDY    36  29  75 E18       30.52F WCI  26
FOND DU LAC    CLOUDY    34  19  54 E10       30.54F WCI  26
SHEBOYGAN      CLOUDY    32  26  78 NE13      30.57F WCI  22
WEST BEND      CLOUDY    32  28  86 NE12      30.54F WCI  23
JUNEAU         CLOUDY    32  22  67 NE10      30.52F WCI  24
$$

LSZ147-162-222000-
LAKE SUPERIOR

STATION/POSITION TIME  TEMP    WIND        PRES    WAVE
                       AIR SEA DIR/SP/G            HT/PER
                 (UTC) (F)     (DEG/KT/KT) (MB)    (FT/S)
DEVILS ISLAND    1900   20      80/  5/  6 1036.4F
SAXON HARBOR     1900   25      50/  4/ 19 1034.2
$$

LMZ867-665-643>646-222000-
LAKE MICHIGAN

STATION/POSITION TIME  TEMP    WIND        PRES    WAVE
                       AIR SEA DIR/SP/G            HT/PER
                 (UTC) (F)     (DEG/KT/KT) (MB)    (FT/S)
NORTHPORT PIER   1840   28                 1036.9S
KEWAUNEE LAKESHO 1854   32      30/  6/ 10 1035.1F
SHEBOYGAN LAKESH 1900   31      50/  9/ 10 1036.1F
PORT WASHINGTON  1830   33      60/  7/  9 1036.2F
MILWAUKEE LAKESH 1900   32      50/ 12/ 13   N/A
KENOSHA   LAKESH 1900   33      70/ 11/ 12 1033.5
$$

TC  - TEMPERATURE IN CELSIUS
VSB - VISIBILITY IN STATUTE MILES
WCI - WIND CHILL INDEX
HX  - HEAT INDEX




USA.gov is the U.S. government's official web portal to all federal, state and local government web resources and services.